Hourly Data Report for October 24, 2014

All times are specified in Local Standard Time (LST). Add 1 hour to adjust for Daylight Saving Time where and when it is observed.

FREDERICTON
NEW BRUNSWICK

45°52'08.000" N
66°32'14.000" W
20.70 m
8101505
71700
YFC

Download Data

Hourly Data (October 2014)
Hourly Data Report for October 24, 2014
Temp Definition
°C
Dew Point Temp Definition
°C
Rel Hum Definition
%
Wind Dir Definition
10's deg

Wind Spd Definition
km/h
Visibility Definition
km
Stn Press Definition
kPa
Hmdx Definition


Wind Chill Definition


Weather Definition


TIME
00:00 Legend Double Dagger 9.5 8.4 93 4 26 16.1 100.66     Rain
01:00 Legend Double Dagger 9.3 8.6 95 3 32 4.0 100.55     Moderate Rain,Fog
02:00 Legend Double Dagger 9.3 8.6 95 3 28 4.0 100.53     Moderate Rain,Fog
03:00 Legend Double Dagger 9.0 8.1 94 4 24 6.4 100.46     Moderate Rain,Fog
04:00 Legend Double Dagger 8.6 7.9 95 2 22 6.4 100.38     Heavy Rain,Fog
05:00 Legend Double Dagger 8.5 7.8 95 2 24 8.1 100.36     Moderate Rain,Fog
06:00 Legend Double Dagger 8.3 7.6 95 2 18 8.1 100.36     Moderate Rain,Fog
07:00 Legend Double Dagger 8.1 7.5 96 2 18 4.0 100.32     Rain,Fog
08:00 Legend Double Dagger 8.3 7.6 95 2 18 14.5 100.27     Rain
09:00 Legend Double Dagger 8.3 7.7 96 3 21 2.8 100.26     Moderate Rain,Fog
10:00 Legend Double Dagger 8.4 7.7 95 1 26 9.7 100.19     Rain,Fog
11:00 Legend Double Dagger 8.1 7.0 93 1 24 16.1 100.21     Rain
12:00 Legend Double Dagger 7.8 6.8 93 1 24 11.3 100.16     Rain
13:00 Legend Double Dagger 7.3 6.5 94 1 26 3.6 100.11     Rain,Fog
14:00 Legend Double Dagger 6.9 5.4 90 1 30 16.1 100.03     LegendNANA
15:00 Legend Double Dagger 6.3 5.2 92 36 17 16.1 100.05     Rain
16:00 Legend Double Dagger 5.9 5.0 94 36 24 16.1 100.00     LegendNANA
17:00 Legend Double Dagger 5.9 5.0 94 1 18 14.5 100.01     LegendNANA
18:00 Legend Double Dagger 5.8 4.9 94 36 15 16.1 100.01     LegendNANA
19:00 Legend Double Dagger 5.7 5.3 97 36 13 2.8 100.02     Rain,Fog
20:00 Legend Double Dagger 5.8 5.2 96 36 17 16.1 100.02     Rain
21:00 Legend Double Dagger 5.8 5.2 96 35 15 14.5 100.01     LegendNANA
22:00 Legend Double Dagger 5.5 4.9 96 34 21 8.1 100.01     Rain,Fog
23:00 Legend Double Dagger 5.3 5.2 99 33 13 3.2 99.98     Rain,Fog

Notes on Data Quality.

Legend

  • E = Estimated
  • M = Missing
  • NA = Not Available
  • ‡ = Partner data that is not subject to review by the National Climate Archives
Date modified: